Location: Minneapolis
(44.9800°N, 93.2640°W)
Time: 08:20:04
(UTC-06:00)

OTV 5 (USA 277) - Visible Passes

Search period start: 12 December 2017 00:00
Search period end: 22 December 2017 00:00
Orbit: 404 x 417 km, 43.0° (Epoch: 07 September)

Date Brightness Start Highest point End Pass type
(mag) Time Alt. Az. Time Alt. Az. Time Alt. Az.
12 Dec ? 18:01:47 10° W 18:04:59 40° SSW 18:07:02 19° SE visible
13 Dec ? 17:10:41 10° W 17:13:59 49° SSW 17:17:15 10° ESE visible
13 Dec ? 18:48:28 10° WSW 18:50:52 18° SSW 18:51:35 17° SSW visible
14 Dec ? 17:57:08 10° W 17:59:56 24° SSW 18:02:44 10° SSE visible
15 Dec ? 17:05:56 10° W 17:09:00 32° SSW 17:12:02 10° SE visible
16 Dec ? 17:53:10 10° WSW 17:54:46 13° SSW 17:56:22 10° S visible
